Wind_Speed
58 66 73 80 85 89 91 92 92 91 89 85 83 80 79 78 77 76 75 73 71 70 69 67 65 64 63 62 60 58 56 54 54 53 52 51 50 49
47 52 58 65 72 80 86 90 93 93 92 90 87 84 82 81 80 78 77 76 74 73 71 70 68 67 66 65 63 61 59 58 57 56 55 54 53 52
42 45 48 52 58 65 72 80 87 91 93 92 92 89 86 84 82 80 79 77 76 75 73 71 70 68 67 65 63 62 61 60 59 58 57 57 56 55
42 43 45 48 51 55 60 66 73 80 86 88 91 91 89 87 85 83 81 79 78 76 74 73 71 70 69 67 66 65 63 62 61 60 59 59 58 58
41 42 43 44 47 50 53 57 61 66 71 77 82 85 87 87 86 85 84 83 81 78 76 74 73 72 71 70 69 68 66 64 63 62 62 62 61 61
41 41 41 41 42 44 47 50 53 57 60 64 69 73 77 79 81 82 84 84 83 82 79 77 76 74 73 72 71 71 70 69 68 67 66 65 65 64
41 41 40 39 39 40 42 44 46 50 53 54 56 60 64 67 70 73 76 78 79 79 78 78 77 75 75 74 73 72 72 73 72 71 71 69 68 68
42 41 40 39 38 40 41 42 43 46 48 50 52 53 55 59 61 64 67 69 73 76 76 76 76 77 76 75 75 74 73 73 73 73 73 73 73 73
43 43 42 40 39 40 40 42 43 45 47 48 51 52 54 56 58 59 61 65 68 72 74 75 77 77 77 78 78 78 77 77 77 77 77 77 77 76
44 44 44 43 41 40 41 42 43 45 47 48 50 53 55 57 58 59 60 60 61 66 72 75 78 79 81 81 81 81 81 80 81 81 80 79 78 77
45 45 46 45 44 43 42 43 44 46 48 50 51 51 52 54 55 58 60 60 60 61 65 69 73 76 78 79 80 81 81 81 82 83 80 77 77 77
45 46 47 47 46 46 45 44 45 46 47 48 50 51 51 52 54 57 58 58 57 58 60 60 63 67 69 72 73 74 75 75 76 76 74 72 72 73
45 47 48 48 48 48 47 46 46 46 47 48 50 51 50 51 53 54 56 56 55 56 57 58 58 60 61 63 65 65 66 65 66 67 68 68 69 70
43 46 48 49 49 48 48 47 46 46 46 47 49 50 51 52 53 54 55 55 55 55 55 56 56 56 56 56 57 58 59 60 62 63 64 66 66 67
41 45 47 48 48 48 49 48 48 47 47 47 49 50 51 52 53 54 54 55 55 55 55 55 54 54 54 54 54 54 54 54 56 58 59 60 61 63
38 42 45 47 48 48 48 49 49 49 48 48 49 50 51 51 52 53 54 54 55 55 56 56 56 56 55 55 55 54 54 53 53 54 55 56 57 58
33 39 43 45 47 48 48 48 49 50 50 50 50 51 52 52 53 54 53 53 53 54 54 54 54 55 56 55 55 54 53 52 52 52 53 53 54 55
26 33 39 43 45 47 48 48 48 49 50 51 51 52 52 53 54 54 54 54 54 53 53 53 54 53 53 53 53 52 52 51 51 51 51 52 52 52
20 26 33 40 44 46 47 48 48 49 49 50 50 51 52 53 54 54 55 55 55 54 53 53 52 52 52 52 51 51 50 49 49 49 49 50 50 51
15 19 25 33 40 44 46 47 48 49 49 49 50 50 51 52 53 54 54 54 55 54 53 52 52 51 51 50 49 49 48 47 47 47 47 47 47 48
11 14 18 24 32 40 45 47 48 49 49 49 49 49 50 50 51 52 53 53 54 53 53 52 51 50 49 48 48 47 45 45 44 44 44 44 44 45
9 11 14 18 24 32 40 45 48 49 49 49 50 49 50 50 50 50 51 52 52 52 51 51 50 49 48 47 46 45 43 42 41 41 40 40 40 40
8 9 12 15 19 24 32 40 45 49 50 50 50 50 50 50 50 50 50 50 51 51 50 49 49 48 46 45 44 43 41 40 39 38 37 36 37 37
Wind_Direction
243 243 244 244 244 244 243 243 243 241 239 237 236 236 236 237 237 238 238 238 238 238 239 240 240 241 241 242 243 243 244 244 245 246 246 248 249 250
242 242 243 243 244 244 245 245 244 244 242 240 238 236 236 236 237 237 238 238 238 238 238 239 240 241 242 242 243 243 244 244 244 245 246 246 247 249
245 244 243 243 243 243 244 244 244 244 244 242 241 239 238 237 236 237 237 238 238 238 238 238 239 240 240 241 241 242 242 242 243 243 244 245 246 247
246 246 246 245 245 243 242 242 242 242 243 242 242 240 239 238 237 237 236 236 237 237 237 237 237 237 238 239 240 241 241 241 242 243 243 244 245 246
246 247 247 247 247 244 241 240 239 238 238 239 239 239 238 237 237 236 236 236 236 236 236 236 237 236 237 237 238 239 240 240 241 242 243 243 244 246
244 245 246 247 245 241 239 236 234 233 232 233 234 234 234 234 234 235 235 235 235 236 236 236 236 236 236 237 238 238 238 239 240 241 242 243 244 245
240 240 241 241 240 237 234 231 230 229 226 226 227 228 229 229 228 230 232 232 233 233 234 235 235 236 236 236 237 237 238 239 239 240 242 243 244 246
236 235 235 235 234 232 230 226 224 222 219 219 218 218 220 222 222 223 225 227 228 229 229 230 231 232 233 234 235 235 236 238 240 240 242 243 244 244
232 231 231 230 229 228 226 222 219 215 213 214 213 213 213 212 214 217 219 222 224 224 224 225 225 227 228 229 231 232 233 235 237 238 240 242 244 245
227 227 227 226 225 224 223 219 215 213 212 212 211 210 209 209 211 214 216 218 222 223 223 224 224 225 226 227 229 231 233 234 236 239 240 242 244 246
224 223 223 223 223 222 221 219 216 214 212 211 210 208 209 209 211 212 215 216 219 222 224 225 227 228 229 230 231 233 234 236 238 241 243 245 247 250
222 221 221 221 221 221 221 221 219 217 215 213 213 211 210 210 210 211 213 215 218 221 223 225 228 231 233 233 235 236 238 240 241 244 246 249 251 252
221 220 219 219 219 220 221 222 221 220 219 216 215 214 213 213 213 214 215 216 217 220 223 226 229 232 235 237 238 240 242 243 244 245 247 249 251 253
221 220 219 218 218 219 220 221 221 220 219 218 217 217 215 215 215 215 216 217 218 220 222 225 227 230 233 235 237 239 241 243 244 246 248 250 252 253
221 220 219 218 218 219 220 220 221 220 219 218 219 219 218 218 218 218 219 219 221 222 223 225 227 229 231 233 235 237 239 241 244 245 247 249 251 252
222 220 219 219 218 218 219 220 221 220 219 218 218 219 219 219 220 220 221 221 222 223 224 225 228 230 232 233 235 237 240 241 243 244 245 247 248 249
224 221 219 219 219 219 219 220 220 221 221 220 219 219 219 220 221 221 221 222 223 225 226 227 229 231 232 234 235 237 239 240 242 243 244 246 247 248
228 224 221 220 219 219 219 220 220 221 221 221 220 220 220 221 222 223 223 223 225 226 227 229 230 231 233 234 235 237 238 240 241 242 244 246 247 248
233 229 225 222 220 220 221 221 221 221 221 221 222 222 222 221 222 223 224 224 225 226 228 229 230 231 232 233 234 236 237 238 240 242 244 246 247 248
240 235 230 226 223 222 221 222 222 222 222 222 222 223 222 222 222 223 223 224 225 226 228 229 230 230 231 232 233 235 236 238 240 242 244 245 247 249
251 243 236 231 227 224 223 222 223 223 223 223 223 223 223 223 223 223 223 224 225 226 227 228 229 229 230 231 233 234 236 238 241 242 244 245 246 248
269 255 245 238 231 227 225 224 224 224 224 224 224 224 224 223 223 223 223 223 224 225 226 227 227 228 229 230 232 233 235 237 238 240 242 244 245 245
303 277 259 247 239 232 228 226 225 225 225 225 225 225 224 224 224 224 223 223 223 224 225 225 226 226 227 228 230 231 233 235 236 239 240 241 242 242
Height
5481 5487 5496 5505 5513 5521 5531 5540 5551 5561 5574 5587 5597 5607 5615 5625 5633 5641 5650 5660 5669 5676 5684 5691 5698 5704 5710 5716 5721 5727 5733 5738 5743 5748 5752 5757 5761 5765
5466 5471 5477 5484 5491 5499 5508 5517 5527 5538 5551 5564 5575 5587 5597 5606 5615 5624 5634 5643 5652 5660 5668 5676 5683 5689 5695 5701 5707 5713 5719 5725 5730 5735 5740 5745 5749 5754
5452 5457 5462 5467 5473 5479 5486 5495 5505 5515 5528 5542 5552 5566 5576 5587 5597 5606 5616 5625 5635 5644 5652 5660 5668 5674 5680 5686 5693 5699 5705 5711 5716 5722 5727 5732 5737 5742
5439 5443 5448 5452 5457 5462 5468 5475 5484 5494 5505 5518 5530 5543 5555 5567 5578 5587 5597 5607 5617 5626 5635 5644 5651 5658 5665 5672 5678 5684 5690 5697 5703 5708 5714 5720 5724 5728
5426 5429 5433 5437 5441 5446 5452 5458 5466 5475 5485 5496 5507 5521 5534 5546 5556 5567 5577 5588 5598 5608 5617 5626 5634 5642 5649 5657 5663 5670 5677 5684 5689 5694 5698 5704 5709 5714
5412 5416 5420 5424 5427 5432 5437 5444 5451 5459 5468 5478 5488 5501 5513 5525 5535 5546 5557 5568 5580 5590 5600 5609 5617 5625 5634 5642 5650 5655 5661 5667 5673 5679 5684 5689 5694 5699
5399 5404 5408 5412 5416 5420 5425 5431 5438 5445 5454 5463 5473 5484 5495 5506 5518 5528 5539 5550 5561 5571 5581 5592 5603 5612 5617 5624 5631 5638 5645 5652 5658 5664 5669 5674 5679 5684
5386 5391 5396 5400 5405 5409 5414 5421 5427 5435 5444 5452 5461 5470 5480 5492 5503 5513 5523 5533 5544 5556 5566 5574 5583 5591 5600 5608 5615 5623 5629 5635 5641 5647 5653 5659 5664 5669
5372 5378 5383 5389 5394 5399 5404 5411 5417 5425 5433 5441 5450 5458 5468 5479 5491 5501 5509 5517 5528 5539 5547 5556 5564 5573 5582 5590 5597 5605 5612 5618 5625 5631 5636 5642 5647 5652
5358 5364 5371 5377 5383 5388 5394 5400 5407 5415 5423 5431 5439 5448 5457 5467 5477 5488 5496 5504 5513 5521 5530 5538 5546 5555 5564 5572 5580 5588 5594 5601 5607 5613 5619 5625 5630 5635
5344 5351 5358 5365 5371 5378 5384 5390 5397 5404 5412 5420 5429 5438 5447 5457 5466 5475 5484 5492 5499 5506 5514 5523 5531 5539 5546 5554 5562 5570 5577 5583 5590 5597 5603 5608 5613 5619
5330 5337 5345 5352 5359 5366 5373 5380 5387 5394 5402 5410 5419 5427 5436 5445 5454 5462 5471 5480 5487 5494 5502 5510 5517 5524 5531 5539 5547 5554 5561 5568 5575 5581 5588 5593 5597 5602
5316 5324 5331 5339 5348 5355 5363 5370 5377 5385 5392 5401 5409 5417 5426 5434 5442 5451 5459 5468 5476 5484 5492 5499 5506 5513 5520 5527 5535 5541 5548 5554 5561 5567 5574 5579 5583 5588
5303 5311 5319 5328 5336 5344 5352 5359 5367 5375 5383 5391 5399 5408 5416 5424 5432 5440 5448 5456 5464 5472 5481 5488 5495 5502 5509 5515 5522 5529 5535 5542 5549 5555 5561 5565 5569 5573
5292 5299 5308 5317 5325 5334 5341 5349 5357 5365 5373 5381 5389 5397 5405 5413 5421 5429 5437 5445 5453 5461 5469 5477 5484 5490 5497 5504 5511 5518 5524 5530 5536 5542 5547 5552 5556 5560
5283 5290 5298 5306 5315 5323 5331 5339 5347 5355 5363 5371 5379 5387 5394 5402 5410 5419 5427 5435 5443 5450 5458 5466 5473 5480 5486 5493 5500 5507 5513 5519 5525 5530 5534 5539 5543 5547
5275 5281 5289 5297 5305 5313 5321 5329 5336 5345 5352 5360 5368 5376 5384 5392 5400 5408 5416 5423 5431 5439 5447 5454 5461 5468 5475 5482 5488 5495 5501 5507 5513 5518 5522 5527 5531 5534
5270 5274 5280 5287 5295 5303 5311 5319 5326 5334 5342 5350 5358 5365 5373 5381 5389 5397 5404 5412 5420 5428 5436 5443 5450 5457 5464 5471 5477 5484 5490 5496 5502 5506 5511 5514 5518 5522
5265 5269 5273 5279 5286 5293 5301 5309 5316 5324 5331 5339 5347 5354 5362 5370 5378 5385 5393 5401 5409 5417 5424 5431 5439 5446 5453 5460 5467 5473 5479 5485 5490 5495 5499 5502 5505 5509
5262 5264 5268 5272 5278 5285 5292 5299 5306 5314 5321 5329 5336 5344 5351 5359 5367 5374 5382 5390 5398 5405 5413 5420 5428 5435 5442 5449 5456 5462 5468 5474 5479 5483 5487 5490 5493 5497
5259 5261 5263 5266 5270 5276 5282 5289 5296 5303 5311 5318 5326 5333 5340 5348 5355 5363 5371 5378 5386 5394 5402 5409 5416 5424 5431 5438 5445 5451 5457 5462 5467 5471 5475 5479 5482 5485
5257 5257 5258 5260 5263 5267 5273 5279 5286 5293 5300 5308 5315 5322 5330 5337 5344 5352 5359 5367 5375 5383 5391 5398 5405 5413 5421 5428 5434 5441 5447 5452 5456 5460 5464 5468 5471 5474
5255 5254 5254 5255 5257 5260 5264 5269 5275 5282 5289 5297 5304 5312 5319 5326 5334 5341 5349 5356 5364 5372 5380 5387 5395 5403 5410 5417 5424 5430 5436 5441 5446 5450 5454 5458 5461 5464